CubeBel-2 (EU11S)
1 57175U 23091K   26240.84572352  .00011995  00000-0  40564-3 0  9997
2 57175  97.4989 304.7713 0008678 208.2424 151.8347 15.30746586175411
RS-38S
1 57189U 23091Z   26240.86412965  .00017733  00000-0  47379-3 0  9994
2 57189  97.5036 311.8952 0007488 159.3160 200.8389 15.38123911175853
SONATE-2
1 59112U 24043Q   26240.68229196  .00043377  00000-0  45442-3 0  9994
2 59112  97.5602  35.8698 0004872 291.7252  68.3488 15.64287981139200
GRBBeta
1 60237U 24128C   26240.61714807  .00003016  00000-0  21228-3 0  9991
2 60237  61.9916 322.0591 0030257 150.5287 209.7520 15.07088873117189
Curium One
1 60242U 24128H   26240.47283674  .00006077  00000-0  34714-3 0  9998
2 60242  61.9796 309.5692 0029394 145.9199 214.3792 15.13445302117390
ROBUSTA-3A
1 60243U 24128J   26240.61168737  .00006091  00000-0  35602-3 0  9990
2 60243  61.9874 311.9574 0031278 143.0164 217.3097 15.12563478117372
CatSat
1 60246U 24125J   26240.53266449  .00074468  00000-0  65568-3 0  9997
2 60246  97.1995  94.4532 0014640 267.3105  92.6481 15.68385706118690
HYPERVIEW-1G (RS66S)
1 61772U 24199AP  26230.11543498  .07890463  24672-5  93922-3 0  9997
2 61772  97.2456 114.2453 0006603 245.8477 114.2131 16.36574258144515
AO-123
1 61781U 24199AY  26240.86107964  .00007805  00000-0  21974-3 0  9999
2 61781  97.2883 108.8828 0014970  52.7051 307.5556 15.36624288145082
LASARsat
1 62391U 24247Q   26239.00061145  .00036753  00000-0  62768-3 0  9995
2 62391  44.9711 222.9854 0007545  67.9259 292.2433 15.50706273 94295
CroCube
1 62394U 24247T   26240.37544953  .00046690  00000-0  72007-3 0  9991
2 62394  44.9690 211.1456 0007712  89.1274 271.0502 15.53448460 94556
JINJUSat 1B
1 63210U 25052A   26240.65598990  .00014864  00000-0  43159-3 0  9999
2 63210  97.3900 137.5797 0003672 147.2233 212.9239 15.35587820 81215
NUSHSAT 1
1 63211U 25052B   26240.70008117  .00019104  00000-0  50215-3 0  9996
2 63211  97.3872 138.4687 0003331 145.0163 215.1301 15.38632270 81287
TEVEL2-4
1 63213U 25052D   26240.24276209  .00017369  00000-0  48213-3 0  9992
2 63213  97.3798 136.8374 0002426 152.6713 207.4659 15.36965025 81173
TEVEL2-5
1 63214U 25052E   26240.66295125  .00016715  00000-0  46711-3 0  9992
2 63214  97.3793 137.1847 0002279 152.5562 207.5803 15.36763998 81239
TEVEL2-6
1 63215U 25052F   26239.43972244  .00020833  00000-0  58259-3 0  9996
2 63215  97.3805 135.9421 0002084 154.2215 205.9134 15.36696664 81049
TEVEL2-1
1 63217U 25052H   26240.66803541  .00016353  00000-0  46672-3 0  9996
2 63217  97.3767 136.7077 0001828 168.9048 191.2237 15.36110059 81214
TEVEL2-3
1 63218U 25052J   26240.26880765  .00017190  00000-0  48949-3 0  9995
2 63218  97.3777 136.3404 0001607 160.4599 199.6707 15.36172497 81150
TEVEL2-2
1 63219U 25052K   26240.01638888  .00019449  00000-0  55452-3 0  9992
2 63219  97.3772 136.0583 0001647 171.1771 188.9502 15.36106751 81116
TEVEL2-9
1 63237U 25052AD  26240.22123091  .00014740  00000-0  45085-3 0  9990
2 63237  97.3831 135.4730 0003986 232.3735 127.7146 15.33944175 81063
TEVEL2-7
1 63238U 25052AE  26240.66872845  .00014251  00000-0  44066-3 0  9992
2 63238  97.3833 135.8029 0003983 230.7887 129.3002 15.33604228 81126
TEVEL2-8
1 63239U 25052AF  26240.22087701  .00014520  00000-0  44923-3 0  9995
2 63239  97.3834 135.3304 0003971 234.8700 125.2171 15.33582876 81053
SPIRONE
1 66657U 25274H   26240.73850882  .00001818  00000-0  17658-3 0  9993
2 66657  97.7469 169.0012 0013186 127.9058 232.3356 14.93792086 41057
K-HERO
1 66660U 25274L   26240.32158242  .00001280  00000-0  12465-3 0  9997
2 66660  97.7478 168.8037 0014914 133.5911 226.6549 14.94188080 41005
SNUGLITE-III DURI
1 66661U 25274M   26240.30811941  .00001222  00000-0  11917-3 0  9995
2 66661  97.7476 168.8111 0015502 134.7142 225.5344 14.94201682 41005
SAKHACUBE-CHOLBON
1 67290U 25313AU  26240.18376758  .00008434  00000-0  32973-3 0  9993
2 67290  97.3888 314.3578 0010668 101.6107 258.6329 15.26050708 36959
RS95S (QMR-KWT-2)
1 67291U 25313AV  26240.48612767  .00012155  00000-0  44684-3 0  9997
2 67291  97.3883 315.0125 0010164  99.0771 261.1619 15.27995608 37027
Ten-Koh2
1 68261U 25241B   26239.67593554  .00007592  00000-0  31592-3 0  9999
2 68261  51.6658 339.1786 0006969  19.2273 340.8967 15.24695328 25815
JACK-002
1 68417U 26067B   26240.84905978  .00006502  00000-0  30341-3 0  9998
2 68417  97.4634 198.6080 0003392  56.7735 303.3825 15.20180578 22985
DISCO 2
1 68431U 26067R   26240.61764566  .00007323  00000-0  34264-3 0  9995
2 68431  97.4667 198.3752 0004199  95.5030 264.6684 15.20038704 22946
HADES-SA (SpinnyONE)
1 68446U 26067AG  26240.62600657  .00016665  00000-0  74653-3 0  9997
2 68446  97.4458 197.9781 0006868 160.3779 199.7722 15.21301712 22936
PARUS-6U1
1 68456U 26067AS  26240.83678424  .00005551  00000-0  27475-3 0  9990
2 68456  97.4619 198.1432 0006086 153.1357 207.0193 15.18181673 22951
SAL-E
1 68458U 26067AU  26240.61672708  .00006982  00000-0  33985-3 0  9999
2 68458  97.4545 197.8308 0005977 161.6713 198.4737 15.18675895 22925
FSI-SAT 2
1 68792U 26088A   26240.85529994  .00003440  00000-0  23140-3 0  9995
2 68792  97.5165  28.3575 0013366 213.7699 146.2679 15.07324419 19239
OrigamiSat 2
1 68795U 26088D   26239.95477824  .00013795  00000-0  84602-3 0  9995
2 68795  97.5158  27.8696 0014662 187.8041 172.2963 15.10165283 19123
ARICA 2
1 68796U 26088E   26239.85877701  .00004001  00000-0  25702-3 0  9999
2 68796  97.5156  27.6760 0015259 187.0544 173.0473 15.08917217 19107
WASEDA-SAT-ZERO-II
1 68797U 26088F   26239.64046161  .00006830  00000-0  43086-3 0  9992
2 68797  97.5146  27.5019 0015104 188.2659 171.8323 15.09330793 19077
MANGARO-II-Piscus
1 68798U 26088G   26240.69120457  .00004122  00000-0  26214-3 0  9997
2 68798  97.5168  28.5721 0018648 188.3800 171.7120 15.09223123 19238
CO-128
1 69912U 26156AV  26240.62639727  .00001304  00000-0  13780-3 0  9993
2 69912  97.7497 140.1510 0002311   5.9117 354.2129 14.90904969  7794
MARINA
1 69920U 26156BD  26240.45126307  .00001891  00000-0  19152-3 0  9998
2 69920  97.7465 140.0531 0007296 354.7278   5.3863 14.92105327  7770
IO-86
1 40931U          26199.45381863  .00000000  00000-0  77536-4 0    07
2 40931   6.0006 322.6653 0012733 338.8432 273.6875 14.79294310    03
LILIUM-4                
1 71922C 26067AC  26089.50133053 -.00014632  00000+0 -74472-3 0    04
2 71922  97.4497  49.1617 0004341   5.9603 355.7042 15.16896692    16
